About KSUZ

The Saline County Regional Airport is a modern facility that opened March 12th, 2007. The airport features a 5001 x 100 ft. runway with a full parallel taxiway, ILS approach, RNAV approaches, and medium intensity runway lights, including strobing runway end identifier lights. KSUZ offers 24-hour self-serve 100LL AV Gas and Jet-A with anti-icing additive at competitive prices. These fuels are available via fuel truck Monday - Friday from 8:00AM to 4:30PM. The airport does not charge ramp fees or landing fees and allows overnight stays for transient aircraft free of charge.

Learn More

Fuel Prices

AVGas $6.90
JET-A $5.29

Current Weather

CLEAR SKIES
Visibility: 10 Miles Altimeter: 30.11 inHg Pressure: 1020 hPA Humidity: 77% Temperature: 55°F (13)°C Dewpoint: 55°F (13)°C
Flight Category: VFR METAR Readout: KSUZ 050315Z AUTO 00000KT 10SM CLR 13/09 A3011 RMK A01

Contact Us

Address

1100 Hill Farm Rd.
Bryant, AR 72022

Identifier:

KSUZ